TimeEST,TemperatureF,Dew PointF,Humidity,Sea Level PressureIn,VisibilityMPH,Wind Direction,Wind SpeedMPH,Gust SpeedMPH,PrecipitationIn,Events,Conditions,WindDirDegrees,DateUTC
12:52 AM,3.9,-0.9,80,30.08,10.0,Calm,Calm,-,N/A,,Overcast,0,2003-01-29 05:52:00
1:52 AM,-0.0,-2.9,88,30.08,10.0,Calm,Calm,-,N/A,,Scattered Clouds,0,2003-01-29 06:52:00
2:42 AM,-2.2,-5.8,85,29.98,10.0,South,3.5,-,N/A,,Mostly Cloudy,170,2003-01-29 07:42:00
2:52 AM,-2.0,-5.1,87,30.07,10.0,Calm,Calm,-,N/A,,Overcast,0,2003-01-29 07:52:00
3:52 AM,1.0,-2.9,83,30.08,10.0,Calm,Calm,-,N/A,,Mostly Cloudy,0,2003-01-29 08:52:00
4:52 AM,1.0,-2.9,83,30.09,10.0,Calm,Calm,-,N/A,,Overcast,0,2003-01-29 09:52:00
5:18 AM,1.4,-2.2,85,30.01,6.0,Calm,Calm,-,0.00,Snow,Light Snow,0,2003-01-29 10:18:00
5:52 AM,1.9,-2.0,83,30.09,8.0,Calm,Calm,-,0.00,,Overcast,0,2003-01-29 10:52:00
6:52 AM,-2.0,-5.1,87,30.11,10.0,Calm,Calm,-,N/A,,Mostly Cloudy,0,2003-01-29 11:52:00
7:05 AM,-2.2,-5.8,85,30.01,10.0,Calm,Calm,-,N/A,,Scattered Clouds,0,2003-01-29 12:05:00
7:52 AM,-4.0,-9.0,79,30.12,10.0,Calm,Calm,-,N/A,,Clear,0,2003-01-29 12:52:00
8:13 AM,-4.0,-7.6,85,30.03,10.0,Calm,Calm,-,N/A,,Mostly Cloudy,0,2003-01-29 13:13:00
8:34 AM,1.4,-2.2,85,30.03,10.0,Calm,Calm,-,N/A,,Overcast,0,2003-01-29 13:34:00
8:52 AM,3.9,-0.9,80,30.11,8.0,Calm,Calm,-,N/A,,Overcast,0,2003-01-29 13:52:00
9:52 AM,9.0,1.9,73,30.12,10.0,Calm,Calm,-,N/A,,Overcast,0,2003-01-29 14:52:00
10:52 AM,14.0,5.0,67,30.10,10.0,Calm,Calm,-,N/A,,Overcast,0,2003-01-29 15:52:00
11:52 AM,18.0,7.0,62,30.08,10.0,Calm,Calm,-,N/A,,Overcast,0,2003-01-29 16:52:00
12:52 PM,19.9,9.0,62,30.06,10.0,Calm,Calm,-,N/A,,Overcast,0,2003-01-29 17:52:00
1:52 PM,21.9,10.0,60,30.07,10.0,Calm,Calm,-,N/A,,Overcast,0,2003-01-29 18:52:00
2:52 PM,21.9,10.9,63,30.09,10.0,North,8.1,-,N/A,,Overcast,350,2003-01-29 19:52:00
3:52 PM,21.9,12.0,66,30.10,10.0,NNW,6.9,-,N/A,,Overcast,340,2003-01-29 20:52:00
4:52 PM,21.0,14.0,74,30.13,10.0,Variable,5.8,-,N/A,,Overcast,0,2003-01-29 21:52:00
5:52 PM,18.0,12.0,78,30.16,10.0,Calm,Calm,-,N/A,,Overcast,0,2003-01-29 22:52:00
6:26 PM,17.6,12.2,79,30.09,10.0,WNW,4.6,-,N/A,,Overcast,300,2003-01-29 23:26:00
6:52 PM,19.0,12.0,74,30.19,10.0,Calm,Calm,-,N/A,,Overcast,0,2003-01-29 23:52:00
7:52 PM,19.0,12.9,77,30.22,10.0,West,6.9,-,N/A,,Overcast,260,2003-01-30 00:52:00
8:02 PM,19.4,12.2,74,30.15,10.0,West,6.9,-,N/A,,Overcast,270,2003-01-30 01:02:00
8:29 PM,17.6,12.2,79,30.16,10.0,Variable,4.6,-,N/A,,Scattered Clouds,0,2003-01-30 01:29:00
8:52 PM,15.1,10.9,84,30.26,10.0,Calm,Calm,-,N/A,,Mostly Cloudy,0,2003-01-30 01:52:00
9:52 PM,15.1,10.9,84,30.28,10.0,Calm,Calm,-,N/A,,Overcast,0,2003-01-30 02:52:00
10:24 PM,12.2,8.6,85,30.21,10.0,Calm,Calm,-,N/A,,Overcast,0,2003-01-30 03:24:00
10:52 PM,15.1,10.9,84,30.30,10.0,West,5.8,-,N/A,,Overcast,280,2003-01-30 03:52:00
11:52 PM,15.1,5.0,64,30.31,10.0,WSW,5.8,-,N/A,,Clear,250,2003-01-30 04:52:00